Showing default

QIANFAN-27, 61560

Orbit data source: Space-Track

QIANFAN-27, 61560 is a Chinese payload satellite in LEO that was launched on Tue, 15 Oct 2024 UTC via a CHANG ZHENG 6A launch vehicle from the Taiyaun Space Center, China (TSC). Payloads include a variety of satellites, spacecraft, and rockets equipped with specific instruments for various scientific and technological missions. These include communications satellites like Starlink; space stations such as the ISS; scientific satellites like the Hubble; Earth observation satellites from companies like Planet Labs, Umbra, and HawkEye 360; GPS; miniature CubeSats for education and research; and military/defense satellites.

Loading next visibility...
QIANFAN-27 details
Identifier
61560, 2024-185J
Orbit
LEO
Last TLE update14 hours ago
Origin
Flag of CNYUANX (CN / PRC)
ManufacturerGESIH/SECM
MissionOperational Commercial Communications
Bus & MotorQIANFAN, Unknown motor
Mass300 kg wet, ~300 kg dry
Launch date (UTC)
2024-10-15 (4 months ago)
Launch vehicle
CHANG ZHENG 6A
Launch site
Taiyaun Space Center, China (TSC)
Object type
Payload
Rocket body
Debris
Shape & HBRBox + 1 Pan, 10 m
Radar Cross Section13.200 m², Large (>1 m²)

Expand to show TLE details & history

TLE from 14 hours ago
0 QIANFAN-27
1 61560U 24185J   25046.93795444  .00001321  00000-0  53621-3 0  9997
2 61560  88.9861 112.0412 0009590 174.1474 185.9834 14.27073221 27402
Epoch: 2025-02-15T22:30Z
Definitive object data (Epoch: 2025-02-15T22:30:39.263Z)
Latitude-0.00002°
Longitude-11.80059°
Altitude811.443 km
Speed7.444 km/s
True Right ascension07h 28m 09s
True Declination0° 00' 00"
Sunlit
Object was in full shadow at TLE epoch
Visualization TLE readout
Latitude28.87827°
Longitude167.57445°
Altitude798.815 km
Speed7.46 km/s
Apparent Right ascension22h 37m 31s
Apparent Declination-6° 15' 03"
Sunlit
Object is in daylight
Visualization observer readout
Local Sidereal Time15:27:21
Azimuth83.456° E
Elevation-17.437°
Doppler factor1
Orbital elements
Apogee altitude805.354 km
Perigee altitude791.589 km
Semi-major axis7,176.609 km
Eccentricity0.000959
Inclination88.9861°
RAAN112.0412°
Arg. of periapsis174.1474°
True anomaly185.97196°
Mean anomaly185.9834°
Eccentric anomaly185.97768°
Mean motion3.56997 °/min
BSTAR0.00053621
Orbital period100.84 mins
Loading maneuver chart data...
Loading historical data...
Loading historical data...
Loading historical data...
Loading historical data...
Loading historical data...
Loading historical data...
Loading historical data...

QIANFAN-27 Visibility forecast

Observer location: undefined°, undefined

Span
Click to sort rows by Start time (UTC) header in descending order
Start Az.
Max El. time (UTC)
Max El. Az.
Max El.
End time (UTC)
End Az.
9 mins2025-02-16 15:54:47.293Z17.175° NNE2025-02-16 15:59:47.293Z91.607° ESE32.277°2025-02-16 16:03:47.293Z151.103° SSE
6 mins2025-02-16 17:37:47.293Z317.623° NNW2025-02-16 17:39:47.293Z288.809° WNW21.172°2025-02-16 17:43:47.293Z234.825° WSW
4 mins2025-02-17 03:17:47.293Z90.061° ESE2025-02-17 03:18:47.293Z77.373° E14.7°2025-02-17 03:21:47.293Z42.06° NE
8 mins2025-02-17 04:55:47.293Z195.423° SSW2025-02-17 04:59:47.293Z298.454° NW40.597°2025-02-17 05:03:47.293Z350.217° N
|